TimeMDT,TemperatureF,Dew PointF,Humidity,Sea Level PressureIn,VisibilityMPH,Wind Direction,Wind SpeedMPH,Gust SpeedMPH,PrecipitationIn,Events,Conditions,WindDirDegrees,DateUTC
12:15 AM,21.2,19.4,93,29.96,2.0,Calm,Calm,-,N/A,Snow,Light Snow,0,2013-03-23 06:15:00
12:35 AM,21.2,19.4,93,29.96,2.0,Calm,Calm,-,N/A,Snow,Light Snow,0,2013-03-23 06:35:00
1:15 AM,21.2,17.6,86,29.96,4.0,Calm,Calm,-,N/A,Snow,Light Snow,0,2013-03-23 07:15:00
1:35 AM,19.4,17.6,93,29.96,10.0,Calm,Calm,-,N/A,,Scattered Clouds,0,2013-03-23 07:35:00
1:55 AM,15.8,14.0,93,29.96,10.0,South,3.5,-,N/A,,Mostly Cloudy,170,2013-03-23 07:55:00
2:15 AM,17.6,14.0,86,29.96,10.0,Calm,Calm,-,N/A,,Overcast,0,2013-03-23 08:15:00
2:35 AM,19.4,15.8,86,29.96,5.0,South,3.5,-,N/A,Snow,Light Snow,180,2013-03-23 08:35:00
2:55 AM,19.4,15.8,86,29.96,4.0,Calm,Calm,-,N/A,Snow,Light Snow,0,2013-03-23 08:55:00
3:15 AM,19.4,17.6,93,29.97,10.0,Calm,Calm,-,N/A,,Overcast,0,2013-03-23 09:15:00
3:35 AM,19.4,15.8,86,29.97,10.0,Calm,Calm,-,N/A,,Overcast,0,2013-03-23 09:35:00
3:55 AM,19.4,17.6,93,29.96,10.0,Calm,Calm,-,N/A,,Overcast,0,2013-03-23 09:55:00
4:15 AM,19.4,17.6,93,29.96,10.0,Calm,Calm,-,N/A,,Overcast,0,2013-03-23 10:15:00
4:35 AM,19.4,15.8,86,29.96,10.0,Calm,Calm,-,N/A,,Overcast,0,2013-03-23 10:35:00
4:55 AM,17.6,15.8,93,29.96,10.0,Calm,Calm,-,N/A,,Overcast,0,2013-03-23 10:55:00
5:15 AM,17.6,14.0,86,29.97,10.0,Calm,Calm,-,N/A,,Scattered Clouds,0,2013-03-23 11:15:00
5:35 AM,15.8,12.2,86,29.97,10.0,SSE,4.6,-,N/A,,Mostly Cloudy,160,2013-03-23 11:35:00
5:55 AM,17.6,12.2,79,29.99,10.0,Calm,Calm,-,N/A,,Mostly Cloudy,0,2013-03-23 11:55:00
6:15 AM,17.6,14.0,86,29.99,10.0,Calm,Calm,-,N/A,,Overcast,0,2013-03-23 12:15:00
6:35 AM,17.6,14.0,86,30.00,10.0,Calm,Calm,-,N/A,,Overcast,0,2013-03-23 12:35:00
6:55 AM,17.6,14.0,86,30.00,10.0,Calm,Calm,-,N/A,,Overcast,0,2013-03-23 12:55:00
7:15 AM,17.6,14.0,86,30.01,10.0,WSW,3.5,-,N/A,,Mostly Cloudy,240,2013-03-23 13:15:00
7:35 AM,17.6,14.0,86,30.02,10.0,WSW,3.5,-,N/A,,Scattered Clouds,240,2013-03-23 13:35:00
7:55 AM,17.6,12.2,79,30.03,10.0,Calm,Calm,-,N/A,,Mostly Cloudy,0,2013-03-23 13:55:00
8:15 AM,17.6,14.0,86,30.04,10.0,Calm,Calm,-,N/A,,Scattered Clouds,0,2013-03-23 14:15:00
8:35 AM,17.6,14.0,86,30.06,10.0,Calm,Calm,-,N/A,,Scattered Clouds,0,2013-03-23 14:35:00
8:55 AM,17.6,14.0,86,30.06,10.0,Calm,Calm,-,N/A,,Overcast,0,2013-03-23 14:55:00
9:15 AM,19.4,15.8,86,30.07,10.0,Calm,Calm,-,N/A,,Overcast,0,2013-03-23 15:15:00
9:35 AM,21.2,15.8,80,30.08,10.0,West,3.5,-,N/A,,Mostly Cloudy,270,2013-03-23 15:35:00
9:55 AM,23.0,17.6,80,30.08,10.0,Calm,Calm,-,N/A,,Mostly Cloudy,0,2013-03-23 15:55:00
10:15 AM,23.0,17.6,80,30.09,10.0,Calm,Calm,-,N/A,,Overcast,0,2013-03-23 16:15:00
10:35 AM,24.8,17.6,74,30.10,4.0,West,4.6,-,N/A,,Haze,270,2013-03-23 16:35:00
10:55 AM,26.6,19.4,74,30.10,7.0,WSW,3.5,-,N/A,,Overcast,250,2013-03-23 16:55:00
11:15 AM,26.6,19.4,74,30.10,10.0,West,5.8,-,N/A,,Scattered Clouds,260,2013-03-23 17:15:00
11:35 AM,28.4,19.4,69,30.10,10.0,South,4.6,-,N/A,,Clear,180,2013-03-23 17:35:00
11:55 AM,28.4,17.6,64,30.10,10.0,Calm,Calm,-,N/A,,Clear,0,2013-03-23 17:55:00
12:15 PM,28.4,17.6,64,30.10,10.0,West,8.1,-,N/A,,Mostly Cloudy,260,2013-03-23 18:15:00
12:35 PM,30.2,19.4,64,30.09,10.0,WSW,6.9,-,N/A,,Mostly Cloudy,250,2013-03-23 18:35:00
12:55 PM,30.2,19.4,64,30.09,10.0,WSW,10.4,-,N/A,,Overcast,250,2013-03-23 18:55:00
1:15 PM,32.0,17.6,55,30.09,10.0,WSW,6.9,-,N/A,,Scattered Clouds,250,2013-03-23 19:15:00
1:35 PM,32.0,14.0,48,30.08,10.0,SW,4.6,-,N/A,,Mostly Cloudy,230,2013-03-23 19:35:00
1:55 PM,28.4,17.6,64,30.09,5.0,SW,3.5,9.2,N/A,Snow,Light Snow,220,2013-03-23 19:55:00
2:15 PM,28.4,14.0,55,30.08,10.0,Calm,Calm,-,N/A,,Mostly Cloudy,0,2013-03-23 20:15:00
2:35 PM,28.4,19.4,69,30.07,7.0,SW,8.1,-,N/A,Snow,Light Snow,220,2013-03-23 20:35:00
2:55 PM,30.2,12.2,47,30.07,10.0,Calm,Calm,-,N/A,,Mostly Cloudy,0,2013-03-23 20:55:00
3:15 PM,32.0,14.0,48,30.07,10.0,South,4.6,-,N/A,,Overcast,180,2013-03-23 21:15:00
3:35 PM,30.2,12.2,47,30.07,10.0,SE,4.6,-,N/A,,Overcast,140,2013-03-23 21:35:00
3:55 PM,30.2,12.2,47,30.07,10.0,South,5.8,-,N/A,,Overcast,190,2013-03-23 21:55:00
4:15 PM,30.2,14.0,51,30.07,10.0,SE,9.2,-,N/A,,Overcast,130,2013-03-23 22:15:00
4:35 PM,28.4,14.0,55,30.07,4.0,South,8.1,-,N/A,Snow,Light Snow,180,2013-03-23 22:35:00
4:55 PM,30.2,14.0,51,30.07,4.0,East,4.6,-,N/A,Snow,Light Snow,90,2013-03-23 22:55:00
5:15 PM,30.2,15.8,55,30.07,10.0,ESE,8.1,-,N/A,,Overcast,110,2013-03-23 23:15:00
5:35 PM,28.4,15.8,59,30.08,10.0,ESE,11.5,-,N/A,,Overcast,110,2013-03-23 23:35:00
5:55 PM,28.4,17.6,64,30.08,10.0,East,8.1,-,N/A,,Overcast,80,2013-03-23 23:55:00
6:15 PM,28.4,19.4,69,30.08,10.0,ESE,9.2,-,N/A,,Overcast,110,2013-03-24 00:15:00
6:35 PM,26.6,19.4,74,30.09,10.0,ESE,10.4,-,N/A,,Overcast,110,2013-03-24 00:35:00
6:55 PM,26.6,19.4,74,30.09,1.5,ESE,8.1,-,N/A,Snow,Light Snow,120,2013-03-24 00:55:00
7:15 PM,26.6,19.4,74,30.10,4.0,SE,8.1,-,N/A,Snow,Light Snow,130,2013-03-24 01:15:00
7:35 PM,26.6,21.2,80,30.10,10.0,East,6.9,-,N/A,,Overcast,100,2013-03-24 01:35:00
7:55 PM,24.8,19.4,80,30.10,10.0,ESE,5.8,-,N/A,,Overcast,120,2013-03-24 01:55:00
8:15 PM,23.0,19.4,86,30.11,10.0,Calm,Calm,-,N/A,,Scattered Clouds,0,2013-03-24 02:15:00
8:35 PM,23.0,17.6,80,30.12,10.0,Calm,Calm,-,N/A,,Clear,0,2013-03-24 02:35:00
8:55 PM,21.2,17.6,86,30.12,10.0,Calm,Calm,-,N/A,,Clear,0,2013-03-24 02:55:00
9:15 PM,21.2,15.8,80,30.13,10.0,SE,4.6,-,N/A,,Clear,130,2013-03-24 03:15:00
9:35 PM,19.4,14.0,80,30.13,10.0,ESE,6.9,-,N/A,,Clear,110,2013-03-24 03:35:00
9:55 PM,21.2,14.0,74,30.14,10.0,ESE,5.8,-,N/A,,Clear,110,2013-03-24 03:55:00
10:15 PM,19.4,14.0,80,30.14,10.0,East,4.6,-,N/A,,Clear,100,2013-03-24 04:15:00
10:35 PM,21.2,12.2,68,30.14,10.0,NE,3.5,-,N/A,,Clear,50,2013-03-24 04:35:00
10:55 PM,21.2,12.2,68,30.15,10.0,Calm,Calm,-,N/A,,Clear,0,2013-03-24 04:55:00
11:15 PM,19.4,12.2,74,30.14,10.0,ESE,3.5,-,N/A,,Clear,120,2013-03-24 05:15:00
11:35 PM,17.6,12.2,79,30.14,10.0,Calm,Calm,-,N/A,,Clear,0,2013-03-24 05:35:00
11:55 PM,17.6,10.4,73,30.15,10.0,Calm,Calm,-,N/A,,Clear,0,2013-03-24 05:55:00